User: anonymous   Login
Location: Unspecified
(0.0000°N, 0.0000°E)
Time: 06:45:33
(UTC+00:00)
Language:

Cosmos 1703 - Orbit

View from above orbital plane
View from above orbital plane
View from above satellite
View from above satellite

Ground track
Ground track

The orbit data is extracted from the following two-line orbital elements,

1 16262U 85108A   18111.91377915 +.00000123 +00000-0 +56088-5 0  9991
2 16262 082.4762 306.6628 0010456 297.2319 062.7845 15.10714161765241
Epoch (UTC): 21 April 2018 21:55:50
Eccentricity: 0.0010456
inclination: 82.4762°
perigee height: 527 km
apogee height: 541 km
right ascension of ascending node: 306.6628°
argument of perigee: 297.2319°
revolutions per day: 15.10714161
mean anomaly at epoch: 62.7845°
orbit number at epoch: 76524

The dashed part of the orbit path shows where the satellite is in the earth's shadow,  

DLR